Flag for Belgium Weather past 2 weeks in Bruges, Belgium

Now
72 °F

Passing clouds.


Feels Like: 75 °F
Forecast: 59 / 75 °F
Wind: 12 mph from Northwest

Location: Oostende Airport

Current Time: Jul 31, 2014 at 3:50:18 PM

Latest Report: Jul 31, 2014 at 2:50 PM


Visibility: N/A

Pressure: 29.98 "Hg

Humidity: 65%

Dew point: 59 °F

Location of BrugesLocation

Historic Weather in Bruges — Graph

°F

Bruges temperature yesterday

Maximum temperature yesterday: 68 °F (at 3:20 PM)
Minimum temperature yesterday: 57 °F (at 10:50 PM)
Average temperature yesterday: 64 °F

Past Weeks' High & Low Weather Summary

 TemperatureHumidityPressure
High90 °F (Jul 18, 2:50 PM)94% (Jul 19, 10:50 PM)30.18 "Hg (Jul 19, 10:50 PM)
Low54 °F (Jul 31, 3:20 AM)41% (Jul 18, 4:50 PM)29.74 "Hg (Jul 19, 9:20 PM)
Average67 °F78%29.98 "Hg
* Reported Jul 16 2:20 PM — Jul 31 2:20 PM, Bruges, Weather by CustomWeather, © 2014

Note: Actual official high and low records may vary slightly from our data, if they occured in-between our weather recording intervals... More about our weather records

Advertising

Bruges weather history for previous 24 hours

 ConditionsComfort  
Time TempWeatherWind HumidityBarometerVisibility
2:20 PM
Jul 31
72 °FPassing clouds.12 mph73%29.98 "HgN/A
1:50 PM70 °FPassing clouds.10 mph73%29.98 "HgN/A
1:20 PM72 °FPassing clouds.9 mph69%29.98 "HgN/A
12:50 PM72 °FScattered clouds.9 mph69%29.98 "HgN/A
12:20 PM73 °FPassing clouds.9 mph57%29.98 "HgN/A
11:50 AM72 °FPassing clouds.9 mph61%29.98 "HgN/A
11:20 AM72 °FPassing clouds.12 mph61%29.98 "HgN/A
10:50 AM70 °FPassing clouds.8 mph69%30.01 "HgN/A
10:20 AM68 °FSunny.10 mph69%30.01 "Hg10 mi
9:50 AM66 °FSunny.9 mph73%30.01 "Hg10 mi
9:20 AM64 °FSunny.9 mph73%30.01 "Hg10 mi
8:50 AM63 °FPassing clouds.8 mph77%30.01 "HgN/A
8:20 AM61 °FSunny.8 mph77%30.01 "Hg10 mi
7:50 AM57 °FSunny.6 mph82%30.01 "Hg10 mi
7:20 AM57 °FSunny.6 mph82%30.01 "Hg10 mi
6:50 AM55 °FClear.6 mph88%30.01 "Hg10 mi
6:20 AM55 °FClear.5 mph82%30.01 "Hg10 mi
5:50 AM54 °FClear.6 mph88%30.01 "Hg10 mi
5:20 AM54 °FClear.3 mph88%29.98 "Hg6 mi
4:50 AM54 °FClear.5 mph88%30.01 "Hg10 mi
4:20 AM54 °FClear.5 mph88%30.01 "Hg10 mi
3:50 AM54 °FPassing clouds.3 mph88%30.01 "HgN/A
3:20 AM54 °FClear.6 mph88%30.01 "Hg10 mi
2:50 AM55 °FClear.5 mph82%30.01 "Hg10 mi
2:20 AM55 °FClear.6 mph88%30.01 "Hg10 mi
1:50 AM55 °FClear.5 mph82%30.01 "Hg10 mi
1:20 AM55 °FPassing clouds.5 mph82%30.01 "HgN/A
12:50 AM55 °FClear.6 mph88%30.01 "Hg10 mi
12:20 AM57 °FClear.5 mph82%30.01 "Hg10 mi
11:50 PM
Jul 30
57 °FClear.6 mph82%30.01 "Hg10 mi
11:20 PM57 °FClear.2 mph82%30.01 "Hg10 mi
10:50 PM57 °FClear.3 mph82%30.01 "Hg10 mi
10:20 PM59 °FSunny.3 mph82%30.01 "Hg10 mi
9:50 PM59 °FSunny.5 mph82%30.01 "Hg10 mi
9:20 PM63 °FSunny.3 mph73%30.01 "Hg10 mi
8:50 PM64 °FSunny.5 mph68%30.01 "Hg10 mi
8:20 PM66 °FSunny.5 mph64%30.01 "Hg10 mi
7:50 PM66 °FPassing clouds.6 mph60%30.01 "HgN/A
7:20 PM66 °FPassing clouds.6 mph60%30.01 "HgN/A
6:50 PM66 °FPassing clouds.5 mph64%30.01 "HgN/A
6:20 PM66 °FPassing clouds.6 mph64%30.01 "HgN/A
5:50 PM66 °FPassing clouds.5 mph60%30.01 "HgN/A
5:20 PM66 °FPassing clouds.7 mph64%30.01 "HgN/A
4:50 PM66 °FPassing clouds.7 mph68%30.01 "HgN/A
4:20 PM66 °FPassing clouds.7 mph64%30.01 "HgN/A
3:50 PM66 °FScattered clouds.8 mph68%30.01 "HgN/A
3:20 PM68 °FScattered clouds.10 mph64%30.01 "HgN/A
Weather by CustomWeather, © 2014

See weather overviewHow to use our weather pages